Spirit of St Louis, MO

12:09 PM CDT on October 20, 2017 (GMT -0500)
Spirit Of Saint Louis

Weather History for KSUS - December, 2012

Change the Weather History Date:

Thursday, December 20, 2012

  Actual Average Record
Temperature  
Mean Temperature 42 °F -  
Max Temperature 55 °F 39 °F 69 °F (2013)
Min Temperature 27 °F 20 °F -5 °F (2000)
Degree Days  
Heating Degree Days 24    
Moisture  
Dew Point 34 °F    
Average Humidity 79    
Maximum Humidity 96    
Minimum Humidity 64    
Precipitation  
Precipitation 0.26 in - - ()
Sea Level Pressure  
Sea Level Pressure 29.54 in    
Wind  
Wind Speed 15 mph (WSW)    
Max Wind Speed 36 mph    
Max Gust Speed 55 mph    
Visibility 7 miles    
Events Rain , Snow , Thunderstorm    
Averages and records for this station are not official NWS values.
T = Trace of Precipitation, MM = Missing Value Source: NWS Daily Summary

Daily Weather History Graph

Daily Weather History Graph

Search for Another Location

Airport or City:

Trip Planner

Search our weather history database for the weather conditions in past years. The results will help you decide how hot, cold, wet, or windy it might be!

Date:

Astronomy

Dec. 20, 2012 Rise Set
Actual Time 7:16 AM CST 4:44 PM CST
Civil Twilight 6:46 AM CST 5:14 PM CST
Nautical Twilight 6:13 AM CST 5:47 PM CST
Astronomical Twilight 5:40 AM CST 6:20 PM CST
Moon 11:59 AM CST 12:07 AM CST
Length of Visible Light 10h 27m
Length of Day
9h 27m
First Quarter, 55% of the Moon is Illuminated
Dec 20
First Quarter
Dec 28
Full
Jan 4
Last Quarter
Jan 11
New
Jan 18
First Quarter

Hourly Weather History & Observations

Time (CST) Temp. Windchill Dew Point Humidity Pressure Visibility Wind Dir Wind Speed Gust Speed Precip Events Conditions
12:24 AM 51.8 °F - 46.4 °F 82% 29.48 in 10.0 mi Calm Calm - 0.00 in Rain Light Rain
12:34 AM 50.0 °F - 46.4 °F 87% 29.49 in 10.0 mi WNW 12.7 mph - 0.00 in Rain , Thunderstorm Light Thunderstorms and Rain
12:54 AM 53.1 °F - 48.0 °F 83% 29.53 in 8.0 mi WSW 17.3 mph 20.7 mph 0.02 in Rain , Thunderstorm Light Thunderstorms and Rain
1:18 AM 53.6 °F - 48.2 °F 82% 29.50 in 10.0 mi Calm Calm - 0.05 in Rain Light Rain
1:35 AM 51.8 °F - 50.0 °F 94% 29.49 in 5.0 mi SSE 3.5 mph - 0.08 in Rain Rain
1:54 AM 51.1 °F - 50.0 °F 96% 29.49 in 5.0 mi SSE 3.5 mph - 0.12 in Rain Rain
2:29 AM 51.8 °F - 50.0 °F 94% 29.46 in 8.0 mi SE 4.6 mph - 0.06 in Rain Light Rain
2:54 AM 51.1 °F - 50.0 °F 96% 29.39 in 7.0 mi ESE 8.1 mph - 0.09 in Rain Light Rain
3:54 AM 53.1 °F - 51.1 °F 93% 29.32 in 10.0 mi SE 6.9 mph - 0.00 in   Partly Cloudy
4:09 AM 53.6 °F - 51.8 °F 94% 29.29 in 10.0 mi Variable 3.5 mph - N/A   Partly Cloudy
4:54 AM 52.0 °F - 50.0 °F 93% 29.25 in 10.0 mi East 3.5 mph - N/A   Mostly Cloudy
5:54 AM 55.0 °F - 51.1 °F 86% 29.24 in 10.0 mi South 11.5 mph 18.4 mph N/A   Overcast
6:49 AM 55.4 °F - 48.2 °F 77% 29.24 in 10.0 mi SW 20.7 mph 32.2 mph N/A   Overcast
6:54 AM 55.9 °F - 46.9 °F 72% 29.24 in 10.0 mi WSW 25.3 mph 39.1 mph N/A   Overcast
7:31 AM 50.0 °F - 39.2 °F 66% 29.27 in 10.0 mi SW 18.4 mph 32.2 mph N/A   Overcast
7:54 AM 48.9 °F - 37.9 °F 66% 29.29 in 10.0 mi WSW 28.8 mph 36.8 mph N/A   Mostly Cloudy
8:54 AM 44.1 °F 35.4 °F 34.0 °F 68% 29.32 in 10.0 mi WSW 21.9 mph 35.7 mph N/A   Overcast
9:46 AM 39.2 °F 28.3 °F 32.0 °F 75% 29.33 in 10.0 mi WSW 25.3 mph 38.0 mph 0.00 in   Mostly Cloudy
9:54 AM 39.9 °F 29.2 °F 30.9 °F 70% 29.34 in 10.0 mi WSW 25.3 mph 40.3 mph 0.00 in   Mostly Cloudy
10:54 AM 36.0 °F 25.0 °F 32.0 °F 86% 29.39 in 5.0 mi West 20.7 mph 34.5 mph 0.00 in Snow Light Snow
11:15 AM 35.6 °F 23.2 °F 32.0 °F 87% 29.39 in 4.0 mi WSW 26.5 mph 32.2 mph 0.01 in Rain Light Rain
11:28 AM 35.6 °F 23.4 °F 30.2 °F 81% 29.40 in 2.5 mi WSW 25.3 mph 33.4 mph 0.01 in Snow Light Snow
11:35 AM 33.8 °F 20.8 °F 30.2 °F 87% 29.41 in 2.0 mi WSW 26.5 mph 34.5 mph 0.01 in Snow Light Snow
11:54 AM 34.0 °F 21.8 °F 30.9 °F 89% 29.44 in 2.0 mi West 23.0 mph 36.8 mph 0.01 in Snow Light Snow
12:32 PM 35.6 °F 24.0 °F 28.4 °F 75% 29.47 in 7.0 mi West 23.0 mph 36.8 mph 0.00 in   Overcast
12:42 PM 33.8 °F 20.8 °F 28.4 °F 81% 29.48 in 2.0 mi West 26.5 mph 38.0 mph 0.00 in Snow Snow
12:54 PM 33.1 °F 20.1 °F 28.0 °F 82% 29.50 in 2.0 mi West 25.3 mph 43.7 mph 0.00 in Snow Light Snow
1:54 PM 33.1 °F 19.8 °F 28.0 °F 82% 29.57 in 1.0 mi West 26.5 mph 42.6 mph 0.01 in Snow Light Snow
2:54 PM 32.0 °F 17.0 °F 27.0 °F 82% 29.63 in 1.0 mi West 33.4 mph 48.3 mph 0.00 in Snow Light Snow
2:56 PM 32.0 °F 18.6 °F 26.6 °F 80% 29.62 in 0.8 mi West 25.3 mph 48.3 mph 0.00 in Snow Light Snow
3:23 PM 32.0 °F 16.5 °F 26.6 °F 80% 29.65 in 3.0 mi West 35.7 mph 51.8 mph 0.00 in Snow Light Snow
3:31 PM 32.0 °F 18.1 °F 26.6 °F 80% 29.66 in 2.5 mi West 27.6 mph 51.8 mph 0.00 in Snow Light Snow
3:54 PM 32.0 °F 18.6 °F 24.1 °F 73% 29.70 in 2.5 mi West 25.3 mph 55.2 mph 0.01 in   Overcast
4:40 PM 30.2 °F 14.9 °F 21.2 °F 69% 29.75 in 10.0 mi WNW 31.1 mph 51.8 mph 0.00 in   Overcast
4:54 PM 30.9 °F 15.9 °F 23.0 °F 72% 29.76 in 10.0 mi West 31.1 mph 47.2 mph 0.00 in   Overcast
5:54 PM 30.0 °F 14.9 °F 21.0 °F 69% 29.83 in 10.0 mi West 29.9 mph 47.2 mph N/A   Overcast
6:24 PM 30.2 °F 16.5 °F 21.2 °F 69% 29.83 in 10.0 mi West 24.2 mph 39.1 mph N/A   Overcast
6:54 PM 30.9 °F 16.2 °F 19.9 °F 64% 29.86 in 10.0 mi WNW 29.9 mph 39.1 mph N/A   Mostly Cloudy
7:54 PM 28.9 °F 15.1 °F 19.9 °F 69% 29.90 in 10.0 mi West 23.0 mph 34.5 mph N/A   Scattered Clouds
8:54 PM 28.9 °F 14.3 °F 18.0 °F 64% 29.93 in 10.0 mi West 26.5 mph 40.3 mph N/A   Clear
9:54 PM 28.9 °F 16.9 °F 18.0 °F 64% 29.96 in 10.0 mi West 17.3 mph 32.2 mph N/A   Clear
10:54 PM 28.0 °F 14.9 °F 18.0 °F 66% 29.99 in 10.0 mi West 19.6 mph 28.8 mph N/A   Clear
11:54 PM 27.0 °F 13.9 °F 17.1 °F 66% 30.02 in 10.0 mi West 18.4 mph 29.9 mph N/A   Clear